Weather History for Pascagoula, MS

Change the Weather History Date:

Sunday, December 16, 2012

  Actual Average Record
Temperature  
Mean Temperature 67 °F -  
Max Temperature 72 °F 62 °F 78 °F (2001)
Min Temperature 62 °F 43 °F 22 °F (1951)
Cooling Degree Days 2    
Growing Degree Days 17 (Base 50)    
Moisture  
Dew Point 64 °F    
Average Humidity 90    
Maximum Humidity 94    
Minimum Humidity 83    
Precipitation  
Precipitation 0.02 in - - ()
Sea Level Pressure  
Sea Level Pressure 29.93 in    
Wind  
Wind Speed 5 mph (SSE)    
Max Wind Speed 14 mph    
Max Gust Speed 23 mph    
Visibility 8 miles    
Events Rain    
Averages and records for this station are not official NWS values.
T = Trace of Precipitation, MM = Missing Value Source: NWS Daily Summary

Daily Weather History Graph

Daily Weather History Graph

Search for Another Location

Airport:

Trip Planner

Search our weather history database for the weather conditions in past years. The results will help you decide how hot, cold, wet, or windy it might be!

Date:

Astronomy

Dec. 16, 2012 Rise Set
Actual Time 6:44 AM CST 4:55 PM CST
Civil Twilight 6:17 AM CST 5:22 PM CST
Nautical Twilight 5:47 AM CST 5:52 PM CST
Astronomical Twilight 5:18 AM CST 6:21 PM CST
Moon 9:29 AM CST (12/16) 8:55 PM CST (12/16)
Length of Visible Light 11h 04m
Length of Day
10h 11m
Waxing Crescent, 16% of the Moon is Illuminated
Dec 16
Waxing Crescent
Dec 19
First Quarter
Dec 28
Full
Jan 4
Last Quarter
Jan 11
New

Hourly Weather History & Observations

Time (CST) Temp. Dew Point Humidity Pressure Visibility Wind Dir Wind Speed Gust Speed Precip Events Conditions
12:01 AM 66.2 °F 64.4 °F 94% 30.00 in 7.0 mi SSE 5.8 mph - N/A   Mostly Cloudy
12:31 AM 68.0 °F 64.4 °F 88% 29.99 in 8.0 mi South 5.8 mph - N/A   Scattered Clouds
12:53 AM 66.9 °F 64.0 °F 90% 30.00 in 7.0 mi SSE 3.5 mph - N/A   Scattered Clouds
1:28 AM 64.4 °F 62.6 °F 94% 29.97 in 7.0 mi SSE 4.6 mph - N/A   Scattered Clouds
1:53 AM 64.9 °F 63.0 °F 93% 29.97 in 7.0 mi SSE 5.8 mph - N/A   Scattered Clouds
2:53 AM 66.9 °F 64.0 °F 90% 29.96 in 6.0 mi South 5.8 mph - N/A   Partly Cloudy
3:53 AM 66.9 °F 64.0 °F 90% 29.95 in 4.0 mi South 5.8 mph - N/A   Mostly Cloudy
4:53 AM 66.0 °F 64.0 °F 93% 29.94 in 5.0 mi SSE 4.6 mph - N/A   Mostly Cloudy
5:00 AM 66.2 °F 64.4 °F 94% 29.93 in 7.0 mi SSE 5.8 mph - N/A   Overcast
5:08 AM 66.2 °F 64.4 °F 94% 29.93 in 7.0 mi SE 5.8 mph - N/A   Overcast
5:39 AM 66.2 °F 64.4 °F 94% 29.93 in 8.0 mi SSE 4.6 mph - N/A   Overcast
5:53 AM 66.0 °F 64.0 °F 93% 29.94 in 7.0 mi SSE 4.6 mph - N/A   Overcast
6:53 AM 66.9 °F 64.9 °F 93% 29.96 in 6.0 mi Calm Calm - N/A   Overcast
7:50 AM 68.0 °F 66.2 °F 94% 29.97 in 6.0 mi South 3.5 mph - N/A   Overcast
7:53 AM 68.0 °F 66.0 °F 93% 29.97 in 6.0 mi SSE 3.5 mph - N/A   Overcast
8:34 AM 68.0 °F 66.2 °F 94% 29.96 in 6.0 mi Calm Calm - 0.00 in Rain Light Rain
8:41 AM 69.8 °F 66.2 °F 88% 29.96 in 8.0 mi Calm Calm - 0.00 in   Overcast
8:53 AM 69.1 °F 66.9 °F 93% 29.96 in 8.0 mi South 4.6 mph - 0.00 in   Overcast
9:34 AM 71.6 °F 66.2 °F 83% 29.95 in 6.0 mi South 4.6 mph - N/A   Haze
9:53 AM 70.0 °F 66.0 °F 87% 29.95 in 5.0 mi SSE 8.1 mph - 0.00 in Rain Light Rain
10:53 AM 72.0 °F 66.9 °F 84% 29.94 in 10.0 mi South 5.8 mph - 0.00 in   Overcast
11:42 AM 71.6 °F 69.8 °F 94% 29.93 in 8.0 mi South 5.8 mph - 0.00 in   Overcast
11:53 AM 71.1 °F 68.0 °F 90% 29.94 in 10.0 mi SSW 4.6 mph - 0.00 in   Overcast
12:03 PM 71.6 °F 66.2 °F 83% 29.92 in 10.0 mi SSW 5.8 mph - N/A   Overcast
12:53 PM 70.0 °F 66.9 °F 90% 29.91 in 6.0 mi South 3.5 mph - 0.00 in Rain Light Rain
1:19 PM 69.8 °F 66.2 °F 88% 29.90 in 10.0 mi Variable 4.6 mph - 0.00 in   Overcast
1:53 PM 70.0 °F 66.0 °F 87% 29.90 in 9.0 mi SW 3.5 mph - 0.00 in   Overcast
2:53 PM 71.1 °F 66.0 °F 84% 29.87 in 10.0 mi Variable 5.8 mph - 0.00 in   Scattered Clouds
3:53 PM 70.0 °F 66.0 °F 87% 29.87 in 10.0 mi SSW 6.9 mph - N/A   Overcast
4:53 PM 70.0 °F 64.9 °F 84% 29.86 in 10.0 mi South 5.8 mph - N/A   Overcast
5:53 PM 68.0 °F 64.9 °F 90% 29.88 in 10.0 mi Calm Calm - N/A   Partly Cloudy
6:27 PM 64.4 °F 60.8 °F 88% 29.91 in 7.0 mi North 13.8 mph 23.0 mph 0.02 in Rain Light Rain
6:53 PM 62.1 °F 59.0 °F 90% 29.91 in 9.0 mi North 9.2 mph - 0.02 in Rain Light Rain
7:53 PM 62.1 °F 59.0 °F 90% 29.91 in 10.0 mi NE 4.6 mph - 0.00 in   Overcast
8:53 PM 62.1 °F 59.0 °F 90% 29.91 in 10.0 mi East 4.6 mph - N/A   Overcast
9:53 PM 62.1 °F 59.0 °F 90% 29.93 in 10.0 mi East 3.5 mph - N/A   Overcast
10:53 PM 62.1 °F 59.0 °F 90% 29.91 in 10.0 mi ESE 6.9 mph - N/A   Partly Cloudy
11:53 PM 62.1 °F 57.9 °F 86% 29.85 in 10.0 mi ESE 9.2 mph - N/A   Clear